Location: Unspecified
(20.0000°S, 0.0000°E)
Time: 14:23:27
(UTC+00:00)

STRAND 1 - Visible Passes

Search period start: 16 July 2019 00:00
Search period end: 26 July 2019 00:00
Orbit: 768 x 781 km, 98.5° (Epoch: 15 July)

Date Brightness Start Highest point End Pass type
(mag) Time Alt. Az. Time Alt. Az. Time Alt. Az.
16 Jul ? 18:43:24 10° NNE 18:48:23 60° ESE 18:53:27 10° S visible
17 Jul ? 18:10:31 10° NE 18:14:36 25° ESE 18:18:42 10° SSE visible
17 Jul ? 19:49:34 10° NNW 19:53:34 23° W 19:57:36 10° SW visible
18 Jul ? 19:14:32 10° N 19:19:32 58° WNW 19:24:36 10° SSW visible
19 Jul ? 18:40:40 10° NNE 18:45:38 56° ESE 18:50:39 10° S visible
20 Jul ? 18:07:54 10° ENE 18:11:50 23° ESE 18:15:48 10° SSE visible
20 Jul ? 19:46:39 10° NNW 19:50:47 25° W 19:54:57 10° SW visible
21 Jul ? 19:11:44 10° N 19:16:46 63° WNW 19:21:51 10° SSW visible
22 Jul ? 18:37:56 10° NNE 18:42:52 52° ESE 18:47:50 10° S visible
22 Jul ? 20:21:26 10° WNW 20:22:06 10° W 20:22:46 10° W visible
23 Jul ? 18:05:17 10° ENE 18:09:06 21° ESE 18:12:54 10° SSE visible
23 Jul ? 19:43:45 10° NNW 19:48:00 27° W 19:52:18 10° SW visible
24 Jul ? 19:08:56 10° N 19:13:59 68° WNW 19:19:06 10° SSW visible
25 Jul ? 18:35:13 10° NNE 18:40:06 48° ESE 18:45:02 10° S visible
25 Jul ? 20:17:47 10° WNW 20:19:19 11° W 20:20:50 10° WSW visible
